Regional Weather Roundup
Issued by NWS

Home | Current Version | Previous Version | Graphics & Text | Print | Product List | Glossary On
Versions: 1 2 3 4 5 6 7 8 9 10 11 12 13 14 15 16 17 18 19 20 21 22 23 24 25 26 27 28 29 30 31 32 33 34 35 36 37 38 39 40 41 42 43 44 45 46 47 48 49 50
000
ASUS43 KFSD 261302
RWRSD

WEATHER ROUNDUP FOR SOUTH DAKOTA
NATIONAL WEATHER SERVICE SIOUX FALLS SD
700 AM CST MON JAN 26 2015

NOTE: "FAIR" INDICATES FEW OR NO CLOUDS BELOW 12,000 FEET WITH NO
SIGNIFICANT WEATHER AND/OR OBSTRUCTIONS TO VISIBILITY.


SDZ001>005-009-010-012>017-261400-
NORTHWEST AND NORTH CENTRAL SOUTH DAKOTA

CITY           SKY/WX    TMP DP  RH WIND       PRES   REMARKS
BUFFALO          N/A     42  30  62 W3        29.90R
FAITH            N/A     40  30  67 NW17      29.93R
MOBRIDGE       MOCLDY    39  34  82 NW9       29.86R
$$

SDZ012>016-024>037-041>051-057-063-072>074-261400-
SOUTHWEST AND SOUTH CENTRAL SOUTH DAKOTA

CITY           SKY/WX    TMP DP  RH WIND       PRES   REMARKS
RAPID CTY ARPT CLEAR     45  27  49 W8        30.00R
PIERRE         PTCLDY    40  33  76 W13       29.91R
CUSTER         CLEAR     42  25  50 NW5       30.06S
ELLSWORTH AFB  CLEAR     51  29  42 NW15      29.98R
PHILIP         CLEAR     40  30  67 W8        29.96R
PINE RIDGE     CLEAR     34  27  75 SW5       30.05R WCI  30
WINNER         FAIR      43  32  65 W12       29.93R
$$

SDZ004>011-016>023-039-040-261400-
NORTHEAST SOUTH DAKOTA

CITY           SKY/WX    TMP DP  RH WIND       PRES   REMARKS
ABERDEEN       PTCLDY    34  30  85 NW9       29.82R WCI  27
WATERTOWN      CLEAR     33  30  88 NW12      29.77R WCI  24
SISSETON         N/A     38  33  82 NW17      29.73R
$$

SDZ017-020-022-023-036>040-048>070-261400-
SOUTHEAST SOUTH DAKOTA

CITY           SKY/WX    TMP DP  RH WIND       PRES   REMARKS
SIOUX FALLS    PTCLDY    36  31  82 NW14      29.79S
HURON          CLEAR     36  32  85 NW15      29.84R
MITCHELL       CLEAR     37  32  82 W14       29.85R
YANKTON        CLEAR     37  30  75 W15       29.84R
$$

ABBREVIATIONS USED IN REMARKS
   TC - TEMPERATURE IN CELSIUS
  WCI - WIND CHILL INDEX
   HX - HEAT INDEX
  VSB - VISIBILITY



USA.gov is the U.S. government's official web portal to all federal, state and local government web resources and services.